Regional Weather Roundup
Issued by NWS

Home | Current Version | Previous Version | Graphics & Text | Print | Product List | Glossary On
Versions: 1 2 3 4 5 6 7 8 9 10 11 12 13 14 15 16 17 18 19 20 21 22 23 24 25 26 27 28 29 30 31 32 33 34 35 36 37 38 39 40 41 42 43 44 45 46 47 48 49 50
000
ASUS43 KMKX 262059
RWRWI

WISCONSIN REGIONAL WEATHER ROUNDUP
NATIONAL WEATHER SERVICE MILWAUKEE/SULLIVAN WI
400 PM CDT THU MAR 26 2015

NOTE: "FAIR" INDICATES FEW OR NO CLOUDS BELOW 12,000 FEET WITH NO
SIGNIFICANT WEATHER AND/OR OBSTRUCTIONS TO VISIBILITY.

WIZ001-002-006>008-014>016-023>028-262200-
NORTHWEST WISCONSIN

CITY           SKY/WX    TMP DP  RH WIND       PRES   REMARKS
SUPERIOR ARPT  SUNNY     32   6  34 N13G18    30.12S WCI  22
ASHLAND        PTSUNNY   31  12  45 NE12      30.11F WCI  22
HAYWARD        MOSUNNY   30   8  39 VRB7G16   30.06F WCI  23
SIREN          FAIR      34   3  27 N8G18     30.08S WCI  27
CUMBERLAND     CLOUDY    32  10  40 NW10G16   30.05S WCI  24
RICE LAKE      CLOUDY    32  13  46 NW8       30.07F WCI  25
CHETEK         CLOUDY    32  15  49 N7        30.06S WCI  25
LADYSMITH      CLOUDY    29  16  57 NW10      30.06S WCI  20
EAU CLAIRE     NOT AVBL
MENOMONIE      CLOUDY    33  15  47 NW10G18   30.07S WCI  25
NEW RICHMOND   CLOUDY    33  14  46 N12G23    30.09S WCI  24
OSCEOLA        CLOUDY    33  15  46 NW10      30.12S WCI  25
$$

WIZ003>005-009-010-017-018-262200-
NORTH CENTRAL WISCONSIN

CITY           SKY/WX    TMP DP  RH WIND       PRES   REMARKS
MANITOWISH WTR FLURRIES  20  10  64 N10G20    30.02R WCI   9
ARBOR VITAE    CLOUDY    23  12  62 N15       30.00S WCI  10
WOODRUFF       CLOUDY    23  12  62 N15       30.00S WCI  10
RHINELANDER    CLOUDY    23  10  57 NW9G17    29.99R WCI  13
EAGLE RIVER    FLURRIES  22   9  57 NW15G22   29.99R WCI   8
LAND O LAKES   FLURRIES  21  12  68 N13       30.00S WCI   8
PHILLIPS       CLOUDY    24  11  56 N13G20    30.02S WCI  12
TOMAHAWK       CLOUDY    25  12  58 N10G18    30.01S WCI  15
MEDFORD        CLOUDY    27  14  58 N13G18    30.00S WCI  16
MERRILL        CLOUDY    28  14  55 N15       30.00R WCI  16
$$

WIZ029-030-035-036-043>047-262200-
CENTRAL WISCONSIN

CITY           SKY/WX    TMP DP  RH WIND       PRES   REMARKS
WAUSAU         CLOUDY    29  14  53 N14G23    29.98R WCI  18
MOSINEE        CLOUDY    28  16  59 NW13      30.00R WCI  18
MARSHFIELD     CLOUDY    30  17  58 NW15G24   30.01R WCI  19
STEVENS POINT  CLOUDY    29  13  51 NW14G21   30.00S WCI  18
WAUPACA        CLOUDY    34  15  45 NW13      29.99S WCI  25
WAUTOMA        NOT AVBL
WISC RAPIDS    CLOUDY    32  14  47 N14G25    30.02S WCI  22
CAMP DOUGLAS   NOT AVBL
$$

WIZ011>013-019>022-031-037>040-048>050-262200-
NORTHEAST WISCONSIN

CITY           SKY/WX    TMP DP  RH WIND       PRES   REMARKS
ANTIGO         CLOUDY    25  13  60 N14       29.96S WCI  13
SHAWANO        CLOUDY    32  17  53 N16       29.98R WCI  22
OCONTO         CLOUDY    32  17  55 N12G17    29.97R WCI  23
STURGEON BAY   CLOUDY    30  16  55 N17G25    29.98R WCI  18
GREEN BAY      CLOUDY    32  21  64 N15       29.98R WCI  22
MANITOWOC      NOT AVBL
APPLETON       CLOUDY    30  16  55 NW17G23   29.98R WCI  18
CLINTONVILLE   CLOUDY    32  16  51 NW16G24   29.99R WCI  21
OSHKOSH        CLOUDY    32  17  54 NW16G23   29.98R WCI  21
$$

WIZ032>034-041-042-053>061-262200-
SOUTHWEST WISCONSIN

CITY           SKY/WX    TMP DP  RH WIND       PRES   REMARKS
LA CROSSE      CLOUDY    38  19  46 NW12      30.05S WCI  30
SPARTA         CLOUDY    34  19  53 NW14      30.04R WCI  25
VIROQUA        CLOUDY    32  22  67 NW15      30.02S WCI  22
BOSCOBEL       CLOUDY    36  20  52 NW9G20    30.05R WCI  29
PRAIRIE DU CHI CLOUDY    34  20  58 NW15G21   30.06S WCI  24
PLATTEVILLE    CLOUDY    35  24  63 NW17G23   30.02R WCI  25
$$

WIZ056-057-062-063-064-067-068-262200-
SOUTH CENTRAL WISCONSIN

CITY           SKY/WX    TMP DP  RH WIND       PRES   REMARKS
REEDSBURG      CLOUDY    35  18  48 NW12G21   29.99S WCI  27
BARABOO/DELLS  CLOUDY    35  17  47 NW14G22   29.99R WCI  26
LONE ROCK      NOT AVBL
MINERAL POINT  CLOUDY    36  21  55 NW14G21   30.00R WCI  27
MADISON        CLOUDY    36  19  50 NW13G20   29.99R WCI  27
MIDDLETON      CLOUDY    37  21  53 NW15      29.99S WCI  28
WATERTOWN      CLOUDY    36  20  53 NW10G18   29.97S WCI  28
MONROE         CLOUDY    36  25  64 NW14      29.98S WCI  27
JANESVILLE     CLOUDY    39  23  52 NW15G21   29.98R WCI  31
$$

WIZ051-052-058>065-066-070>072-262200-
SOUTHEAST WISCONSIN

CITY           SKY/WX    TMP DP  RH WIND       PRES   REMARKS
MILWAUKEE      CLOUDY    36  18  48 NW14      29.97R WCI  27
WAUKESHA       CLOUDY    32  19  59 NW16G23   29.97S WCI  21
MILWAUKEE/TIMM CLOUDY    34  18  51 NW17      29.98R WCI  23
RACINE         CLOUDY    37  21  52 NW14      29.98R WCI  28
BURLINGTON     CLOUDY    34  22  61 N13       29.97R WCI  25
KENOSHA        CLOUDY    37  24  59 NW10      29.97R WCI  30
FOND DU LAC    CLOUDY    32  19  58 N14       29.98R WCI  22
SHEBOYGAN      CLOUDY    33  21  61 NW14G21   29.97R WCI  23
WEST BEND      CLOUDY    32  21  64 NW13      29.96R WCI  22
JUNEAU         CLOUDY    33  20  61 NW14G21   29.98S WCI  23
$$

LSZ147-162-262200-
LAKE SUPERIOR

STATION/POSITION TIME  TEMP    WIND        PRES    WAVE
                       AIR SEA DIR/SP/G            HT/PER
                 (UTC) (F)     (DEG/KT/KT) (MB)    (FT/S)
DEVILS ISLAND    2000   24     350/ 11/ 13 1021.5F
PORT WING        2040   26      20/  7/  8 1020.7S
$$

LMZ867-665-643>646-262200-
LAKE MICHIGAN

STATION/POSITION TIME  TEMP    WIND        PRES    WAVE
                       AIR SEA DIR/SP/G            HT/PER
                 (UTC) (F)     (DEG/KT/KT) (MB)    (FT/S)
NORTHPORT PIER   2005   27     360/ 22     1014.2R
SISTER BAY       2047   30      10/ 19/ 27   N/A
KEWAUNEE LAKESHO 2000   33     340/  7/ 14 1013.2R
SHEBOYGAN LAKESH 2000   34     320/ 10/ 13 1015.1R
PORT WASHINGTON  2040   35     310/  7/ 14 1015.6R
MILWAUKEE LAKESH 2000   36     300/  9/ 15   N/A
KENOSHA   LAKESH 2000   37     330/ 15/ 18 1014.2S
$$

TC  - TEMPERATURE IN CELSIUS
VSB - VISIBILITY IN STATUTE MILES
WCI - WIND CHILL INDEX
HX  - HEAT INDEX



USA.gov is the U.S. government's official web portal to all federal, state and local government web resources and services.